This demonstration page uses our WeatherBlox Daily Observations layout. Learn more.

40.92945, -100.16068

Hourly Observations for September 17, 2018

Temp ( °F °C ) Dew Point ( °F °C ) Humidity (%) Winds ( mph kmh ) Pressure ( in mb ) Visibility ( mi km ) Precip ( " mm )
12:15 am 00:15 Clear 73 23 65 18.6 76 76 S 12 19 29.83 1010 10 16.0934 0 0
12:35 am 00:35 Clear 73 22.7 66 18.7 78 78 S 12 19 29.85 1011 10 16.0934 0 0
12:55 am 00:55 Clear 73 22.6 66 18.8 79 79 S 12 19 29.85 1011 10 16.0934 0 0
1:15 am 01:15 Clear 72 22.4 66 18.8 80 80 S 10 17 29.85 1011 10 16.0934 0 0
1:35 am 01:35 Clear 72 22 66 18.8 82 82 S 9 15 29.85 1011 10 16.0934 0 0
1:55 am 01:55 Clear 71 21.7 66 18.8 84 84 S 7 11 29.85 1011 10 16.0934 0 0
2:15 am 02:15 Clear 70 21.3 65 18.6 85 85 SSE 6 9 29.85 1011 10 16.0934 0 0
2:35 am 02:35 Clear 70 21 65 18.5 86 86 SE 5 7 29.85 1011 10 16.0934 0 0
2:55 am 02:55 Clear 69 20.5 65 18.2 87 87 SE 5 7 29.85 1011 10 16.0934 0 0
3:15 am 03:15 Clear 69 20.5 65 18.1 86 86 SE 5 7 29.85 1011 10 16.0934 0 0
3:35 am 03:35 Clear 69 20.6 65 18.2 86 86 SSE 5 7 29.85 1011 10 16.0934 0 0
3:55 am 03:55 Clear 69 20.3 65 18.2 88 88 SSE 6 9 29.85 1011 10 16.0934 0 0
4:15 am 04:15 Clear 68 19.8 64 18 89 89 SE 3 6 29.85 1011 10 16.0934 0 0
4:35 am 04:35 Clear 66 19.1 63 17.4 90 90 Calm 29.88 1012 10 16.0934 0 0
4:55 am 04:55 Clear 64 18 63 17 94 94 Calm 29.88 1012 7 11.26538 0 0
5:15 am 05:15 Clear with Mist and Fog 64 17.6 62 16.6 94 94 ESE 3 6 29.88 1012 5 8.0467 0 0
5:35 am 05:35 Clear with Mist and Fog 63 17.4 62 16.5 94 94 Calm 29.88 1012 4 6.43736 0 0
5:55 am 05:55 Clear 63 17.1 61 16.3 95 95 ESE 3 6 29.88 1012 7 11.26538 0 0
6:15 am 06:15 Clear 64 17.5 62 16.7 95 95 ESE 3 6 29.88 1012 7 11.26538 0 0
6:35 am 06:35 Clear with Mist and Fog 64 17.5 62 16.5 94 94 Calm 29.88 1012 5 8.0467 0 0
6:55 am 06:55 Clear with Mist and Fog 63 17.2 62 16.5 96 96 SE 3 6 29.88 1012 5 8.0467 0 0
7:15 am 07:15 Clear with Mist and Fog 61 16.1 60 15.3 95 95 SE 3 6 29.88 1012 2 3.21868 0 0
7:35 am 07:35 Mostly Cloudy with Mist and Fog 63 17 61 16.2 95 95 SE 5 7 29.88 1012 0.75 1.207005 0 0
7:55 am 07:55 Sunny 65 18.4 64 17.6 95 95 SE 6 9 29.88 1012 7 11.26538 0 0
8:15 am 08:15 Sunny with Mist and Fog 66 18.8 64 18 95 95 ESE 5 7 29.88 1012 5 8.0467 0 0
8:35 am 08:35 Sunny 67 19.7 65 18.5 93 93 ESE 3 6 29.85 1011 7 11.26538 0 0
8:55 am 08:55 Sunny 69 20.6 66 19 91 91 SSE 6 9 29.85 1011 10 16.0934 0 0
9:15 am 09:15 Sunny 71 21.5 67 19.2 87 87 SSE 5 7 29.85 1011 10 16.0934 0 0
9:35 am 09:35 Sunny 73 22.6 67 19.6 83 83 S 6 9 29.85 1011 10 16.0934 0 0
9:55 am 09:55 Sunny 74 23.5 67 19.4 78 78 SSE 6 9 29.83 1010 10 16.0934 0 0
10:15 am 10:15 Sunny 76 24.5 67 19.4 73 73 SSE 7 11 29.83 1010 10 16.0934 0 0
10:35 am 10:35 Sunny 78 25.5 67 19.3 69 69 SSE 7 11 29.83 1010 10 16.0934 0 0
10:55 am 10:55 Sunny 79 26.2 67 19.3 66 66 S 7 11 29.83 1010 10 16.0934 0 0
11:15 am 11:15 Sunny 81 27 67 19.5 64 64 S 9 15 29.8 1009 10 16.0934 0 0
11:35 am 11:35 Sunny 83 28.1 67 19.3 59 59 S 10 17 29.8 1009 10 16.0934 0 0
11:55 am 11:55 Sunny 84 28.7 67 19.3 57 57 S 7 11 29.8 1009 10 16.0934 0 0
12:15 pm 12:15 Sunny 85 29.6 66 19 53 53 S 7 11 29.8 1009 10 16.0934 0 0
12:35 pm 12:35 Sunny 87 30.4 66 18.8 50 50 S 8 13 29.77 1008 10 16.0934 0 0
12:55 pm 12:55 Sunny 87 30.7 66 18.8 49 49 S 8 13 29.77 1008 10 16.0934 0 0
1:15 pm 13:15 Sunny 88 31.1 67 19.2 49 49 SSE 9 15 29.77 1008 10 16.0934 0 0
1:35 pm 13:35 Sunny 89 31.8 65 18.3 45 45 SSE 12 19 29.74 1007 10 16.0934 0 0
1:55 pm 13:55 Sunny 90 32.3 65 18.4 44 44 S 12 19 29.74 1007 10 16.0934 0 0
2:15 pm 14:15 Sunny 91 33 64 17.8 40 40 S 16 26 29.74 1007 10 16.0934 0 0
2:35 pm 14:35 Sunny 92 33.5 63 17 37 37 SSE 15 24 29.71 1006 10 16.0934 0 0
2:55 pm 14:55 Sunny 92 33.5 63 17.1 38 38 S 15 24 29.68 1005 10 16.0934 0 0
3:15 pm 15:15 Sunny 93 33.7 62 16.5 36 36 S 12 19 29.68 1005 10 16.0934 0 0
3:35 pm 15:35 Sunny 93 34 61 16 34 34 S 14 22 29.68 1005 10 16.0934 0 0
3:55 pm 15:55 Sunny 93 34.1 61 16.3 34 34 S 14 22 29.68 1005 10 16.0934 0 0
4:15 pm 16:15 Sunny 93 34.1 61 16 34 34 S 12 19 29.68 1005 10 16.0934 0 0
4:35 pm 16:35 Sunny 94 34.2 61 16.2 34 34 S 13 20 29.68 1005 10 16.0934 0 0
4:55 pm 16:55 Sunny 93 34 61 16.2 34 34 S 12 19 29.65 1004 10 16.0934 0 0
5:15 pm 17:15 Sunny 93 33.8 62 16.5 35 35 SSE 14 22 29.65 1004 10 16.0934 0 0
5:35 pm 17:35 Sunny 92 33.6 61 16 35 35 SSE 15 24 29.65 1004 10 16.0934 0 0
5:55 pm 17:55 Sunny 92 33.1 60 15.7 35 35 SSE 13 20 29.65 1004 10 16.0934 0 0
6:15 pm 18:15 Sunny 91 32.6 60 15.7 36 36 SSE 13 20 29.68 1005 10 16.0934 0 0
6:35 pm 18:35 Sunny 89 31.8 62 16.8 41 41 SSE 8 13 29.68 1005 10 16.0934 0 0
6:55 pm 18:55 Sunny 87 30.7 62 16.8 43 43 SSE 8 13 29.68 1005 10 16.0934 0 0
7:15 pm 19:15 Sunny 85 29.3 63 17.1 48 48 SSE 7 11 29.71 1006 10 16.0934 0 0
7:35 pm 19:35 Sunny 84 28.7 62 16.8 49 49 SE 8 13 29.71 1006 10 16.0934 0 0
7:55 pm 19:55 Clear 82 27.5 63 17 53 53 SE 8 13 29.74 1007 10 16.0934 0 0
8:15 pm 20:15 Clear 80 26.6 63 17.3 57 57 SSE 9 15 29.74 1007 10 16.0934 0 0
8:35 pm 20:35 Clear 79 26 63 17.3 59 59 SSE 8 13 29.74 1007 10 16.0934 0 0
8:55 pm 20:55 Clear 77 25.2 63 17.3 62 62 SSE 8 13 29.77 1008 10 16.0934 0 0
9:15 pm 21:15 Clear 77 25.2 63 17 60 60 SSE 9 15 29.77 1008 10 16.0934 0 0
9:35 pm 21:35 Clear 76 24.5 63 17 63 63 SSE 8 13 29.8 1009 10 16.0934 0 0
9:55 pm 21:55 Clear 76 24.2 63 17 64 64 SSE 7 11 29.8 1009 10 16.0934 0 0
10:15 pm 22:15 Clear 75 23.9 63 17 65 65 SE 7 11 29.8 1009 10 16.0934 0 0
10:35 pm 22:35 Clear 77 24.8 63 17 62 62 SE 7 11 29.8 1009 10 16.0934 0 0
10:55 pm 22:55 Clear 73 22.9 63 17 69 69 SE 7 11 29.8 1009 10 16.0934 0 0
11:15 pm 23:15 Clear 74 23.3 63 17.3 69 69 SSE 8 13 29.8 1009 10 16.0934 0 0
11:35 pm 23:35 Clear 74 23.1 63 17.3 70 70 SSE 7 11 29.8 1009 10 16.0934 0 0
11:55 pm 23:55 Clear 75 24 63 17.4 67 67 SE 8 13 29.8 1009 10 16.0934 0 0

Powered by AerisWeather